Theta_e
306 306 307 310 312 315 315 314 313 312 312 312 315 318 317 313 309 307 306 305 301 298 300 300 301 299 298 299 296 298 297 301 302 303 302 302 301 303 301 303 303 301 300 300 301 298 296 311 314 307 311 316 315 319
307 306 306 308 311 314 314 313 313 311 311 312 314 318 317 314 310 307 304 304 304 299 300 304 305 306 305 304 301 299 297 297 300 306 306 305 302 303 301 298 307 300 305 303 303 303 309 313 315 318 317 316 316 320
307 306 305 307 310 314 313 312 312 311 311 312 314 317 316 314 312 307 302 303 304 301 302 301 303 307 308 307 307 299 301 302 301 309 310 308 302 306 298 300 303 305 310 306 305 308 312 316 317 318 317 317 319 322
307 306 306 308 310 313 312 312 311 311 312 312 313 317 315 313 311 307 304 304 305 302 298 302 306 304 307 306 307 306 304 301 302 305 301 301 300 308 304 304 304 307 309 306 306 308 312 314 316 318 317 318 321 323
307 306 307 309 310 313 312 311 311 311 312 312 314 316 314 312 310 307 305 306 307 303 297 300 304 303 302 303 305 306 304 303 301 299 298 298 307 308 308 308 304 310 308 305 303 309 314 313 317 319 317 317 319 320
306 306 307 308 310 312 311 310 310 311 312 313 314 315 312 311 308 305 302 304 307 306 299 294 302 301 302 301 302 303 303 301 300 299 298 304 306 307 300 300 311 312 313 313 311 315 315 317 319 318 317 319 319 318
306 306 307 308 311 311 310 310 310 311 311 313 313 311 310 308 307 304 302 304 305 306 299 295 296 301 302 303 299 299 301 300 300 299 301 303 304 304 302 297 305 306 312 313 315 317 314 316 316 319 320 319 321 324
306 306 307 309 311 310 310 309 310 310 312 312 311 310 308 307 306 306 310 306 306 304 300 294 294 299 303 303 301 301 297 299 301 302 304 304 304 303 299 305 308 309 312 313 315 318 317 319 319 319 320 323 320 320
306 306 307 310 309 309 309 309 310 311 311 310 309 308 305 303 302 305 310 309 308 303 296 295 293 295 303 300 303 303 302 298 303 302 303 303 302 299 305 308 306 311 312 314 315 317 317 316 317 318 319 322 320 320
306 307 309 309 309 309 309 310 311 310 309 308 307 303 299 302 309 309 304 301 301 301 298 295 295 295 298 299 301 302 304 302 298 301 302 299 301 306 310 311 308 314 315 315 313 313 314 315 317 318 319 320 322 322
307 308 308 307 308 309 310 311 309 308 307 305 301 300 303 309 302 301 298 297 298 296 297 298 296 296 301 297 297 303 305 304 297 299 301 298 300 307 312 312 314 310 316 318 319 319 319 319 318 318 319 320 322 323
308 308 308 308 309 310 311 309 308 309 307 306 304 304 302 300 299 296 295 297 296 295 298 298 300 299 301 301 300 304 302 303 296 304 301 298 305 307 310 313 314 316 315 317 318 318 319 316 318 320 320 322 324 324
308 307 308 308 310 311 309 309 309 308 307 306 303 299 299 297 289 290 288 293 294 299 301 300 299 300 300 304 304 305 298 298 305 300 299 301 307 310 310 314 314 316 317 317 317 318 317 318 320 321 321 322 323 322
307 307 307 309 310 310 309 309 308 308 306 300 297 288 292 291 293 294 295 296 300 300 300 299 300 299 300 302 304 298 300 303 297 295 297 305 307 308 311 314 314 314 315 315 318 319 319 320 320 321 321 321 320 319
307 307 308 309 309 309 309 308 309 309 304 298 297 289 292 297 297 298 298 297 300 300 300 302 300 299 300 301 303 300 297 295 297 297 304 308 309 308 309 313 315 314 315 315 315 317 318 319 320 320 320 321 320 320
307 305 306 309 309 308 308 308 308 308 302 299 298 294 296 294 295 296 297 298 302 301 302 301 298 296 297 299 298 295 295 294 300 306 309 309 308 308 311 312 314 315 314 315 316 316 319 318 318 319 320 320 321 320
301 300 308 308 308 307 307 305 304 300 298 295 294 297 296 296 295 296 297 300 303 302 301 301 294 295 301 298 296 302 299 304 309 310 311 309 308 311 313 314 314 315 313 315 317 316 317 318 319 319 319 321 321 321
298 305 308 307 308 305 303 302 300 297 293 296 293 295 297 297 296 298 299 302 303 301 300 298 302 297 296 294 298 305 308 309 311 311 312 310 311 312 312 313 314 313 312 313 316 317 316 317 317 317 320 320 320 321
301 305 307 307 305 302 298 299 300 292 294 296 297 297 296 296 297 298 299 302 303 304 303 301 298 298 300 304 305 307 307 308 307 307 309 311 312 311 311 313 314 313 313 314 316 316 315 317 317 318 319 319 317 318
307 307 307 307 306 300 295 296 300 295 293 295 297 296 295 295 295 299 301 301 300 299 297 297 298 303 305 309 310 310 309 309 308 306 309 311 311 311 312 312 313 313 314 317 315 307 316 318 319 319 319 318 317 317
305 305 305 304 301 300 297 295 294 294 294 292 293 294 294 296 297 298 298 299 298 297 296 299 303 308 308 310 311 311 310 309 309 309 309 308 311 311 312 310 312 314 313 314 314 315 309 315 315 317 319 319 319 320
301 303 301 302 296 295 295 297 295 296 296 295 296 296 295 294 294 296 297 295 295 296 302 303 305 306 306 307 310 310 310 311 312 311 304 307 307 310 312 314 314 314 316 317 318 316 317 318 318 318 319 320 315 320
301 300 298 296 291 290 291 299 294 295 291 293 296 293 294 295 297 301 296 297 298 302 303 303 304 306 306 308 309 310 311 311 310 310 311 309 310 311 313 314 315 315 315 315 317 315 318 305 315 317 319 319 319 318
302 295 291 290 290 288 294 292 296 295 295 293 291 289 292 295 300 298 293 299 303 306 306 307 307 307 308 309 308 308 310 311 308 310 311 310 310 313 314 315 315 315 314 315 316 318 319 318 308 318 317 317 317 316
288 288 289 284 292 290 289 289 291 292 289 291 290 291 294 298 293 293 294 298 304 307 308 309 310 308 307 308 310 311 310 310 310 308 313 310 310 312 312 313 313 314 315 314 314 314 315 315 316 315 315 314 313 313
283 289 286 287 290 289 289 287 289 290 291 290 290 293 294 291 287 287 293 300 306 307 307 307 307 307 307 308 307 309 312 315 314 309 311 313 311 309 308 308 311 314 316 315 314 311 312 314 314 312 310 311 303 312
284 286 290 295 294 293 291 292 294 291 287 286 287 286 286 285 289 299 306 307 307 309 310 310 310 308 310 311 311 311 312 314 315 314 315 315 314 314 314 311 311 313 316 316 315 313 311 310 311 313 313 314 315 314
289 290 286 289 289 291 289 290 288 288 290 293 294 292 292 296 297 303 305 310 312 312 312 312 314 312 311 312 312 312 313 316 316 316 315 314 312 311 312 312 312 298 311 312 311 312 311 310 311 312 313 313 314 315
289 291 292 289 291 290 290 290 294 296 300 299 296 293 295 300 302 302 303 303 305 307 307 306 303 309 310 309 310 308 310 313 312 309 306 304 305 306 309 308 308 308 308 308 297 298 303 306 309 311 312 311 312 314
291 294 293 291 292 293 298 299 301 302 303 301 301 299 299 300 303 305 305 304 304 304 305 305 306 306 305 305 304 305 306 307 308 307 304 303 304 306 306 305 305 305 305 305 304 304 297 302 301 304 302 303 302 303
296 295 297 299 298 300 301 303 304 304 304 303 304 300 300 303 303 304 304 305 305 304 304 303 303 303 304 304 303 302 302 305 305 306 305 305 305 304 303 303 302 303 302 301 301 300 299 299 299 299 298 298 298 297
303 301 300 297 298 304 306 303 302 301 302 301 301 302 302 301 298 301 303 303 302 301 299 301 301 300 302 303 304 304 295 303 302 302 302 303 301 301 301 301 301 300 300 299 298 298 297 297 297 296 296 296 296 296
303 303 303 301 301 300 303 301 299 298 299 299 300 302 303 301 298 304 306 304 301 300 300 302 302 303 303 302 302 301 297 299 294 289 290 289 289 292 297 298 299 299 298 297 297 297 296 296 296 296 296 296 296 296
Wind_Speed
15 16 17 17 17 13 13 11 11 9 9 9 8 9 14 14 12 4 2 4 2 3 6 8 6 6 3 3 3 3 4 3 2 1 1 0 3 2 3 4 6 5 5 2 3 5 4 7 2 3 5 4 5 7
12 16 17 16 16 13 13 12 11 10 9 10 9 9 14 15 14 5 2 1 3 4 6 3 8 14 15 13 3 3 3 3 2 0 1 2 2 1 3 4 1 3 3 4 4 4 1 5 4 2 5 7 7 7
12 13 17 16 16 14 14 14 13 11 10 11 9 8 15 15 14 7 2 3 2 3 6 4 6 4 11 19 14 6 3 4 3 3 1 1 4 2 1 4 4 3 2 4 5 2 4 3 3 2 3 6 8 3
13 12 17 15 16 15 15 14 12 11 10 10 11 10 15 14 14 8 2 3 2 1 4 4 1 6 3 7 18 19 4 3 2 2 2 2 3 3 2 4 5 1 5 3 5 2 4 2 2 1 4 4 9 11
13 10 13 13 15 15 15 14 13 10 11 10 11 9 14 13 12 4 1 4 3 3 4 7 12 2 5 6 13 15 16 10 3 3 3 3 2 3 2 3 5 4 3 3 3 1 1 3 2 3 8 8 7 11
13 11 13 12 13 15 14 13 11 12 11 12 12 10 14 13 10 3 3 4 5 3 3 5 4 3 2 4 8 11 9 6 4 4 4 3 3 3 3 3 6 5 5 4 2 0 4 2 1 2 3 4 6 7
14 11 12 13 15 16 15 13 12 12 11 11 11 14 15 14 4 2 2 2 7 2 3 5 5 1 1 4 4 4 8 4 4 4 4 3 3 4 3 3 11 1 4 5 3 5 3 2 3 3 1 2 5 9
14 10 11 13 18 16 14 12 12 11 11 12 14 15 13 8 3 4 3 10 6 1 2 3 5 4 1 2 3 4 5 4 6 3 2 3 2 2 5 7 7 1 4 6 6 4 2 4 2 0 2 5 8 7
13 10 10 15 16 15 13 13 11 12 14 18 19 17 4 1 2 0 3 10 1 3 3 2 3 1 3 1 1 4 4 4 3 4 3 3 4 7 8 7 5 4 6 7 9 6 5 4 4 2 1 5 7 7
11 8 11 18 15 13 13 13 14 18 22 21 4 3 2 3 9 11 2 3 4 3 3 4 1 3 2 1 2 2 2 1 3 2 1 3 1 6 12 15 10 5 9 9 8 6 7 7 7 7 7 7 7 6
10 11 19 17 15 14 13 17 21 22 13 2 3 2 3 7 2 1 3 3 3 4 4 4 4 4 1 3 2 1 1 1 2 3 3 2 1 12 18 16 12 7 9 12 5 2 2 4 3 5 5 5 6 7
12 20 20 17 16 16 18 23 24 5 4 5 5 4 3 2 1 3 3 2 4 3 4 3 2 4 1 2 3 1 1 2 2 1 2 1 6 15 16 17 14 10 3 10 8 5 4 3 1 2 4 5 6 6
21 22 19 17 16 17 22 25 11 6 7 3 2 3 2 2 2 5 6 4 3 3 3 1 1 1 3 3 2 2 3 2 1 1 3 1 8 11 12 12 12 14 12 8 7 2 1 4 5 4 5 4 5 5
21 18 16 15 14 20 21 16 11 6 2 2 4 2 4 4 4 4 3 1 1 2 3 3 2 1 0 3 1 2 2 2 1 3 3 4 10 12 11 8 5 16 15 15 12 5 8 7 7 7 6 4 4 5
20 18 16 13 14 17 16 11 7 1 3 2 2 4 5 1 2 2 2 3 2 2 2 2 2 2 1 1 1 1 1 4 4 2 2 5 10 11 11 9 6 12 12 13 12 9 6 6 6 6 6 4 3 2
23 15 5 18 18 15 12 7 4 1 2 1 1 2 1 2 2 2 0 2 2 2 2 2 1 1 2 2 0 2 1 2 2 2 3 4 7 9 9 8 8 7 11 9 11 9 7 6 6 4 4 4 3 2
12 4 16 18 16 14 12 4 2 4 2 1 1 0 1 1 2 2 2 4 3 2 2 1 2 3 1 1 2 1 2 2 2 4 3 5 7 7 8 5 3 6 8 8 11 7 6 6 5 4 4 3 4 4
4 9 20 19 7 7 4 5 2 2 2 1 0 2 1 1 2 2 3 5 4 3 2 3 1 2 0 2 3 3 3 2 3 4 4 6 8 8 7 10 9 4 7 12 11 8 5 6 7 5 4 4 5 5
12 10 15 9 7 3 2 3 2 2 1 1 1 1 2 2 2 2 2 3 2 2 0 1 2 1 1 2 2 2 2 1 3 3 4 7 9 11 12 11 11 11 11 11 10 6 4 7 7 5 4 4 5 5
15 17 10 5 3 3 4 2 2 2 1 2 1 1 2 2 3 3 3 3 3 2 1 2 3 1 1 1 2 1 2 2 2 4 6 4 3 7 10 8 7 7 7 8 7 6 4 6 5 5 4 5 6 7
9 4 5 5 1 3 3 2 2 2 2 1 1 1 2 2 2 1 1 2 1 2 3 4 4 2 3 2 2 1 4 3 4 5 5 8 5 7 9 8 8 6 5 5 6 3 3 3 3 4 4 4 4 5
2 3 2 4 5 3 3 2 2 2 1 1 1 1 1 1 1 0 1 3 3 4 4 3 3 3 3 5 5 5 4 4 7 7 6 7 6 7 8 5 4 4 4 5 4 2 2 2 3 4 4 5 5 5
7 2 4 4 3 4 2 1 2 3 1 2 1 1 1 1 0 0 3 3 3 3 3 2 4 4 5 5 5 6 5 6 5 7 6 4 6 7 6 5 4 3 1 3 1 2 3 3 3 4 4 5 5 6
3 5 5 4 4 3 1 2 1 1 1 0 1 1 1 1 2 2 3 3 3 1 2 4 3 4 3 4 4 5 5 3 4 4 3 4 5 5 3 3 2 2 3 2 1 1 2 3 3 3 3 5 5 5
6 5 3 5 2 2 3 3 2 1 1 2 1 1 2 2 2 2 3 3 3 4 2 1 2 2 4 4 5 5 3 2 0 3 4 3 6 3 3 4 6 6 5 4 6 6 5 4 4 5 6 6 8 9
5 3 2 3 1 0 2 3 3 3 2 2 1 2 2 1 1 3 3 3 2 3 4 3 4 5 3 1 2 2 2 1 2 3 3 4 5 4 4 3 0 4 4 4 6 6 7 8 9 8 6 9 6 9
3 2 1 1 1 1 1 1 2 1 1 3 1 3 2 1 3 1 2 3 2 2 2 2 2 2 2 2 2 2 2 1 1 3 3 5 6 6 5 5 6 4 5 6 6 6 6 6 9 11 9 9 8 5
1 1 3 2 1 0 0 1 3 3 4 4 4 6 1 4 5 4 4 6 5 4 4 4 4 4 4 4 5 5 5 2 3 3 3 4 4 5 6 5 5 8 5 7 8 8 7 7 8 8 8 8 8 7
2 3 3 3 2 3 4 2 2 2 2 2 4 5 4 3 3 3 4 5 5 3 8 8 6 5 5 8 9 8 7 7 8 10 9 6 6 6 7 6 6 7 7 6 7 8 10 8 8 7 7 7 7 6
5 5 3 3 2 1 3 2 10 10 10 10 9 9 7 6 6 6 7 7 9 9 8 7 6 8 8 8 7 8 7 7 6 6 5 6 6 6 5 5 6 6 6 7 8 9 10 8 7 7 9 7 8 8
5 4 2 2 5 8 9 9 7 6 7 7 7 9 6 2 7 11 11 9 9 9 9 9 9 9 8 8 8 8 7 6 8 7 6 5 5 5 5 6 6 6 7 8 8 8 9 8 9 9 10 11 12 11
3 7 7 8 5 0 2 5 6 7 6 9 9 6 4 4 5 4 8 9 9 9 8 8 8 7 7 6 6 5 5 7 8 8 8 6 6 6 6 6 7 7 8 8 8 8 10 10 9 10 10 12 13 13
9 10 9 6 2 3 3 4 4 7 9 9 7 4 3 4 5 3 4 7 7 7 7 6 5 5 6 7 8 6 8 8 8 9 12 12 12 10 7 7 7 8 9 8 9 9 11 13 11 13 13 13 13 14
Wind_Direction
276 285 288 286 299 239 208 198 203 213 221 226 230 196 175 173 173 170 95 199 264 251 271 212 218 206 182 216 235 11 274 170 262 213 279 127 250 1 284 282 311 313 320 347 269 237 223 359 168 256 24 307 297 289
263 282 286 274 283 246 200 191 198 203 227 233 223 199 175 174 175 163 202 168 184 252 287 248 247 250 238 235 201 194 333 316 291 246 207 252 247 246 348 306 152 308 299 312 269 347 5 293 308 335 312 302 314 311
254 273 282 272 280 239 190 186 193 203 208 227 222 230 174 170 169 170 151 151 191 265 266 256 243 234 229 234 226 234 212 243 229 302 309 311 272 205 344 294 278 315 182 253 299 120 309 342 10 160 72 5 339 345
251 269 275 273 287 218 183 184 192 201 199 208 209 207 172 165 164 161 180 157 234 292 285 278 261 266 208 188 204 217 188 113 321 295 282 280 273 206 287 293 273 323 179 263 261 270 298 13 10 349 346 40 70 69
244 259 271 276 285 195 180 186 188 188 197 197 201 204 170 158 157 147 199 208 232 277 297 293 306 262 265 217 207 202 215 232 270 293 260 252 246 222 186 270 261 197 263 266 305 117 295 106 62 33 55 100 101 100
237 246 260 269 264 187 180 182 180 190 195 205 179 175 150 145 134 189 252 169 202 214 267 286 340 270 9 140 164 180 185 183 213 225 236 243 255 244 224 241 259 221 218 213 344 164 217 328 209 118 31 68 121 114
239 245 253 275 224 179 175 177 180 186 197 178 164 149 146 149 174 222 348 53 163 187 251 288 294 244 290 135 128 125 169 182 210 223 232 253 228 202 251 251 283 334 219 181 173 140 117 65 65 342 240 225 247 220
237 243 256 257 182 168 170 171 179 184 174 157 144 133 130 143 294 263 182 148 160 185 247 280 276 283 20 162 144 159 151 193 195 255 232 234 162 216 249 242 275 37 157 181 177 194 149 120 172 319 257 185 143 148
234 232 277 187 162 163 168 169 172 148 139 131 123 125 109 186 200 148 130 163 181 313 298 246 285 354 350 84 123 162 202 189 128 235 225 210 195 219 225 230 248 152 198 201 176 185 190 233 234 235 174 180 170 172
228 240 210 158 156 161 162 161 144 136 131 130 141 155 183 196 129 147 165 155 179 185 223 257 257 267 304 347 129 212 214 229 224 125 126 231 330 358 353 330 293 255 188 168 163 194 212 236 239 232 214 213 207 194
211 212 161 157 168 163 168 147 140 130 133 132 130 130 65 140 166 192 191 221 156 224 196 236 234 297 129 293 357 343 101 124 255 116 260 184 0 346 337 336 335 260 221 201 217 158 212 282 279 262 258 235 164 175
196 160 155 158 165 163 152 143 145 156 155 161 114 109 132 172 137 216 209 171 218 246 182 217 185 227 255 265 268 152 263 193 258 29 249 90 357 340 339 343 354 14 341 254 228 219 260 289 254 160 122 133 160 161
151 148 153 159 158 153 149 155 150 126 128 106 114 101 173 148 168 213 186 189 225 195 196 187 247 247 194 227 236 263 232 222 255 200 62 24 312 336 346 355 12 22 18 335 290 193 63 95 91 96 121 131 139 129
137 137 136 145 151 150 159 144 149 164 193 107 145 148 221 178 231 207 219 206 356 262 297 298 237 264 184 216 321 267 30 266 15 25 49 310 327 332 330 349 10 50 16 21 3 4 85 86 81 75 75 92 122 127
126 120 127 142 146 141 144 143 151 250 81 121 176 192 202 281 260 279 286 280 248 293 287 196 194 252 116 194 2 306 146 74 41 36 284 307 319 323 323 332 337 80 34 1 352 357 31 55 59 62 48 43 58 122
121 98 93 126 113 121 113 101 42 96 95 94 144 160 139 211 115 134 134 305 357 312 190 218 154 117 72 341 167 60 72 89 129 208 246 302 307 302 315 330 325 351 79 350 334 332 342 25 34 32 9 355 349 333
81 75 133 123 104 98 78 67 56 39 88 155 115 31 313 13 16 15 322 357 340 249 50 346 63 39 312 155 114 316 97 126 221 248 231 263 282 298 313 307 11 16 17 348 312 322 333 326 324 311 312 325 289 278
99 127 130 130 129 70 38 3 62 69 88 89 194 106 322 306 324 63 3 1 358 33 355 51 240 228 283 157 164 163 201 239 262 268 263 256 272 283 323 337 332 1 309 292 288 281 288 284 274 279 296 303 293 275
134 135 123 111 80 117 89 65 10 117 85 29 262 216 293 298 288 308 308 355 12 357 276 247 275 257 249 218 214 176 249 267 316 323 288 274 262 267 274 279 283 288 289 280 272 259 272 271 279 291 281 258 262 271
126 131 122 114 202 95 99 73 320 93 138 69 293 359 349 343 339 332 338 353 354 332 278 237 234 208 266 244 236 287 325 317 315 308 293 294 297 285 278 275 268 277 285 276 259 255 255 264 262 268 273 269 258 260
95 117 112 170 87 53 81 105 85 39 100 95 46 339 340 315 316 349 330 2 293 234 243 233 251 216 204 255 247 253 262 251 260 249 287 303 312 295 288 290 276 259 258 266 267 257 238 284 311 310 293 288 274 269
69 104 103 28 63 56 82 18 85 123 194 87 128 308 258 258 268 230 360 236 237 238 223 236 250 272 242 239 239 226 263 272 272 279 280 277 294 319 319 319 305 273 247 247 251 242 263 295 304 315 310 315 310 301
103 31 49 30 72 49 57 302 75 33 80 67 226 225 189 246 243 198 249 232 265 251 260 279 277 270 267 277 259 255 251 268 288 291 313 309 295 298 302 290 253 280 320 73 18 316 3 353 329 317 330 324 326 317
45 51 41 43 42 71 351 48 35 76 151 221 335 292 163 309 320 236 260 262 256 277 256 275 278 283 265 257 269 284 284 270 273 307 302 281 279 264 244 280 353 31 23 355 33 18 359 347 321 347 349 331 322 308
66 10 45 34 39 142 146 148 167 156 142 185 298 298 41 300 271 298 305 312 329 302 308 290 288 289 299 305 311 315 297 207 301 281 284 271 268 230 118 85 66 47 17 24 23 7 356 346 349 347 339 332 323 319
72 36 86 171 189 137 151 170 192 197 175 136 67 352 299 48 300 264 250 274 325 17 20 2 350 346 356 329 308 325 350 225 246 239 8 10 36 45 54 48 95 76 33 19 5 346 328 336 327 332 330 329 306 291
104 141 130 294 319 91 106 337 347 35 186 215 181 176 179 155 251 69 9 21 352 333 305 280 232 271 331 356 338 318 319 300 288 67 71 57 51 42 31 23 11 342 324 314 307 303 304 302 296 295 317 311 313 317
79 306 148 158 70 349 37 176 223 235 194 191 216 172 155 42 35 354 0 339 338 354 49 57 43 29 31 28 25 43 69 112 161 172 141 90 57 46 22 11 356 336 344 9 348 343 341 325 316 316 314 318 329 348
207 183 170 154 186 183 225 276 279 238 229 194 44 45 44 1 312 325 327 339 323 34 58 53 8 1 44 59 50 38 22 17 21 42 38 20 12 20 11 15 20 23 21 20 50 39 19 19 12 6 1 2 358 7
171 179 185 166 184 359 54 162 89 83 72 76 102 113 89 68 32 38 55 38 38 44 52 50 37 37 39 41 45 44 47 35 28 22 7 2 346 347 357 5 10 12 9 8 8 6 9 2 7 15 16 19 18 18
136 186 216 85 58 90 102 103 99 86 82 82 71 75 80 84 56 35 29 23 28 31 28 27 35 31 26 24 15 5 4 16 358 352 354 334 360 23 24 23 17 13 10 10 9 15 9 14 18 18 21 18 17 11
114 80 89 101 104 224 94 72 69 75 64 61 58 58 70 66 63 49 14 9 17 16 14 11 18 21 8 356 360 11 359 355 4 8 23 44 49 39 29 23 17 13 11 16 22 25 21 20 21 17 12 13 9 5
91 101 106 102 89 101 106 98 88 77 73 71 58 45 45 45 68 29 25 24 11 1 358 360 3 0 13 18 27 46 73 67 58 45 51 50 45 32 27 15 15 16 26 27 26 25 26 23 22 19 16 12 8 4